Kecskemet, Hungary

1:08 AM CEST on July 29, 2016 (GMT +0200)
Kecskemet

Weather History for LHKE - December, 2012

Change the Weather History Date:

Friday, December 21, 2012

  Actual Average (LHBP) Record (LHBP)
Temperature  
Mean Temperature 19 °F -  
Max Temperature 24 °F 32 °F 44 °F (2008)
Min Temperature 14 °F 20 °F 14 °F (2004)
Degree Days  
Heating Degree Days 46    
Moisture  
Dew Point 21 °F    
Average Humidity 98    
Maximum Humidity 100    
Minimum Humidity 93    
Precipitation  
Precipitation 0.00 in - - ()
Sea Level Pressure  
Sea Level Pressure 30.03 in    
Wind  
Wind Speed 2 mph ()    
Max Wind Speed 4 mph    
Max Gust Speed -    
Visibility 0.5 miles    
Events Fog    
Averages and records for this station are not official NWS values.
T = Trace of Precipitation, MM = Missing Value Source: Averaged Metar Reports

Daily Weather History Graph

Daily Weather History Graph

Search for Another Location

Airport or City:

Trip Planner

Search our weather history database for the weather conditions in past years. The results will help you decide how hot, cold, wet, or windy it might be!

Date:

Astronomy

Dec. 21, 2012 Rise Set
Actual Time 7:23 AM CET 3:54 PM CET
Civil Twilight 6:48 AM CET 4:30 PM CET
Nautical Twilight 6:09 AM CET 5:09 PM CET
Astronomical Twilight 5:32 AM CET 5:46 PM CET
Moon 11:48 AM CET (12/21) 12:34 AM CET (12/21)
Length of Visible Light 9h 42m
Length of Day
8h 31m
Waxing Gibbous, 62% of the Moon is Illuminated
Dec 21
Waxing Gibbous
Dec 28
Full
Jan 5
Last Quarter
Jan 11
New
Jan 19
First Quarter

Hourly Weather History & Observations

Time (CET) Temp. Windchill Dew Point Humidity Pressure Visibility Wind Dir Wind Speed Gust Speed Precip Events Conditions
12:15 AM 19.4 °F 12.9 °F 19.4 °F 100% 30.04 in 0.7 mi WNW 4.5 mph - N/A   Clear
12:45 AM 21.2 °F 15.0 °F 19.4 °F 93% 30.04 in 0.7 mi West 4.5 mph - N/A   Clear
1:15 AM 21.2 °F 15.0 °F 19.4 °F 93% 30.04 in 0.6 mi WNW 4.5 mph - N/A   Clear
1:45 AM 19.4 °F 12.9 °F 19.4 °F 100% 30.04 in 0.7 mi WNW 4.5 mph - N/A   Clear
2:15 AM 19.4 °F - 19.4 °F 100% 30.04 in 0.7 mi Calm Calm - N/A   Clear
2:31 AM 21.2 °F - 19.4 °F 93% 30.04 in 0.9 mi Calm Calm - N/A   Clear
2:45 AM 21.2 °F - 21.2 °F 100% 30.04 in 0.9 mi WNW 2.2 mph - N/A   Clear
3:15 AM 19.4 °F - 19.4 °F 100% 30.04 in 0.9 mi NW 2.2 mph - N/A   Clear
3:45 AM 17.6 °F - 15.8 °F 93% 30.01 in 0.9 mi NW 2.2 mph - N/A   Clear
4:15 AM 17.6 °F - 17.6 °F 100% 30.01 in 0.9 mi Calm Calm - N/A   Clear
4:45 AM 19.4 °F - 17.6 °F 93% 30.01 in 1.2 mi Calm Calm - N/A   Clear
5:15 AM 19.4 °F - 19.4 °F 100% 30.01 in 1.1 mi Calm Calm - N/A   Clear
5:45 AM - - - N/A% - 0.9 mi Variable 4.5 mph - N/A Fog Mist
6:15 AM 17.6 °F - 15.8 °F 93% 30.01 in 1.2 mi North 2.2 mph - N/A   Clear
6:28 AM 15.8 °F 8.7 °F 14.0 °F 93% 30.01 in 0.9 mi NNE 4.5 mph - N/A   Clear
6:30 AM 14.0 °F 6.6 °F 12.2 °F 93% 30.01 in 0.5 mi NNE 4.5 mph - N/A Fog Light Freezing Fog
6:35 AM 14.0 °F 6.6 °F 14.0 °F 100% 30.01 in 0.2 mi NE 4.5 mph - N/A Fog Light Freezing Fog
6:45 AM 17.6 °F - 17.6 °F 100% 30.01 in 0.1 mi NNE 2.2 mph - N/A Fog Light Freezing Fog
7:00 AM - - - N/A% - 0.4 mi Variable 4.5 mph - N/A Fog Light Freezing Fog
7:15 AM 19.4 °F - 19.4 °F 100% 30.01 in 0.1 mi ENE 2.2 mph - N/A Fog Light Freezing Fog
7:45 AM 19.4 °F - 19.4 °F 100% 30.01 in 0.1 mi NE 2.2 mph - N/A Fog Light Freezing Fog
8:15 AM 21.2 °F - 19.4 °F 93% 30.01 in 0.1 mi ESE 2.2 mph - N/A Fog Light Freezing Fog
8:45 AM - - - N/A% - 0.9 mi Variable 4.5 mph - N/A   Scattered Clouds
9:00 AM - - - N/A% - 0.4 mi Variable 4.5 mph - N/A Fog Light Freezing Fog
9:15 AM 19.4 °F - 19.4 °F 100% 30.01 in 0.1 mi SSE 2.2 mph - N/A Fog Light Freezing Fog
9:45 AM 21.2 °F - 19.4 °F 93% 30.01 in 0.1 mi ESE 2.2 mph - N/A Fog Light Freezing Fog
10:15 AM 21.2 °F - 21.2 °F 100% 30.04 in 0.1 mi SE 2.2 mph - N/A Fog Light Freezing Fog
10:17 AM - - - N/A% - 0.4 mi Variable 4.5 mph - N/A Fog Light Freezing Fog
10:25 AM - - - N/A% - 0.4 mi Variable 4.5 mph - N/A Fog Light Freezing Fog
10:45 AM 21.2 °F - 21.2 °F 100% 30.04 in 0.1 mi Calm Calm - N/A Fog Light Freezing Fog
11:15 AM 21.2 °F - 21.2 °F 100% 30.04 in 0.1 mi West 2.2 mph - N/A Fog Light Freezing Fog
11:45 AM - - - N/A% - 0.4 mi Variable 4.5 mph - N/A Fog Light Freezing Fog
12:15 PM 23.0 °F - 23.0 °F 100% 30.01 in 0.1 mi Calm Calm - N/A Fog Light Freezing Fog
12:45 PM 23.0 °F - 23.0 °F 100% 30.01 in 0.1 mi Calm Calm - N/A Fog Light Freezing Fog
1:00 PM - - - N/A% - 0.4 mi Variable 4.5 mph - N/A Fog Light Freezing Fog
1:08 PM 24.8 °F - 24.8 °F 100% 30.01 in 0.2 mi Calm Calm - N/A Fog Light Freezing Fog
1:15 PM 24.8 °F - 24.8 °F 100% 30.01 in 0.4 mi Calm Calm - N/A Fog Light Freezing Fog
1:34 PM 24.8 °F - 24.8 °F 100% 30.01 in 0.5 mi Calm Calm - N/A Fog Light Freezing Fog
1:45 PM 24.8 °F - 24.8 °F 100% 30.01 in 0.6 mi Calm Calm - N/A   Overcast
2:15 PM 24.8 °F - 24.8 °F 100% 30.01 in 0.6 mi Calm Calm - N/A   Overcast
2:45 PM - - - N/A% - 0.9 mi Variable 4.5 mph - N/A   Overcast
3:15 PM 24.8 °F - 24.8 °F 100% 30.01 in 0.6 mi Calm Calm - N/A   Overcast
3:45 PM 24.8 °F - 24.8 °F 100% 30.01 in 0.6 mi Calm Calm - N/A   Overcast
4:15 PM 24.8 °F - 24.8 °F 100% 30.01 in 0.6 mi Calm Calm - N/A   Overcast
4:45 PM 24.8 °F - 24.8 °F 100% 30.04 in 0.6 mi Calm Calm - N/A   Overcast
5:15 PM 24.8 °F - 24.8 °F 100% 30.04 in 0.6 mi Calm Calm - N/A   Overcast
5:45 PM - - - N/A% - 0.9 mi Variable 4.5 mph - N/A   Overcast
6:15 PM 24.8 °F - 24.8 °F 100% 30.04 in 0.6 mi Calm Calm - N/A   Overcast
6:45 PM 24.8 °F - 24.8 °F 100% 30.04 in 0.6 mi Calm Calm - N/A   Overcast
7:15 PM 24.8 °F - 24.8 °F 100% 30.04 in 0.6 mi Calm Calm - N/A   Overcast
7:45 PM 24.8 °F - 24.8 °F 100% 30.04 in 0.6 mi Calm Calm - N/A   Overcast
8:15 PM 24.8 °F - 23.0 °F 93% 30.06 in 0.6 mi North 2.2 mph - N/A   Overcast
8:29 PM 24.8 °F - 23.0 °F 93% 30.06 in 0.5 mi Calm Calm - N/A Fog Light Freezing Fog
8:45 PM - - - N/A% - 0.9 mi Variable 4.5 mph - N/A   Overcast
9:07 PM 23.0 °F - 23.0 °F 100% 30.06 in 0.4 mi Calm Calm - N/A Fog Light Freezing Fog
9:15 PM 23.0 °F - 23.0 °F 100% 30.06 in 0.4 mi Calm Calm - N/A Fog Light Freezing Fog
9:35 PM 23.0 °F - 23.0 °F 100% 30.06 in 0.2 mi NNE 2.2 mph - N/A Fog Light Freezing Fog
9:45 PM 23.0 °F - 23.0 °F 100% 30.06 in 0.2 mi Calm Calm - N/A Fog Light Freezing Fog
10:00 PM - - - N/A% - 0.4 mi Variable 4.5 mph - N/A Fog Light Freezing Fog
10:15 PM 23.0 °F - 23.0 °F 100% 30.09 in 0.2 mi North 2.2 mph - N/A Fog Light Freezing Fog
10:45 PM 23.0 °F - 21.2 °F 93% 30.09 in 0.2 mi North 2.2 mph - N/A Fog Light Freezing Fog
11:15 PM 23.0 °F - 21.2 °F 93% 30.09 in 0.2 mi North 2.2 mph - N/A Fog Light Freezing Fog
11:45 PM - - - N/A% - 0.4 mi North - - N/A Fog Light Freezing Fog